Overview Statistics Trail Chart Weather Telemetry Raw packets
 

This is the latest recevied weather packets stored in our database for station/object KD0MAC. If no packets are shown the sender has not sent any weather packets the latest 10 day(s).

<< 69 70 71 72 73 74 75 >>
Time Temp. Humidity Pressure Rain* Wind** Luminosity Snow
1788273731 26.67° C 63% 1015.9 hPa 0 mm - 232 W/m² -
1788273430 26.67° C 63% 1015.9 hPa 0 mm - 225 W/m² -
1788273130 26.67° C 63% 1015.9 hPa 0 mm - 209 W/m² -
1788272831 26.11° C 67% 1015.9 hPa 0 mm - 204 W/m² -
1788272530 26.11° C 69% 1015.9 hPa 0 mm - 189 W/m² -
1788272230 25.56° C 69% 1015.9 hPa 0 mm - 192 W/m² -
1788271930 25° C 72% 1015.9 hPa 0 mm - 186 W/m² -
1788271630 25° C 72% 1015.9 hPa 0 mm - 160 W/m² -
1788271333 24.44° C 72% 1015.9 hPa 0 mm - 162 W/m² -
1788271029 24.44° C 73% 1015.9 hPa 0 mm - 109 W/m² -
1788270729 23.89° C 75% 1015.9 hPa 0 mm - 126 W/m² -
1788270430 23.33° C 74% 1015.9 hPa 0 mm - 113 W/m² -
1788270131 23.33° C 76% 1015.9 hPa 0 mm - 107 W/m² -
1788269831 22.78° C 79% 1015.9 hPa 0 mm - 99 W/m² -
1788269530 21.67° C 81% 1015.9 hPa 0 mm - 46 W/m² -
1788269230 21.67° C 83% 1015.9 hPa 0 mm - 43 W/m² -
1788268951 21.67° C 82% 1015.9 hPa 0 mm - 42 W/m² -
1788268629 21.11° C 83% 1015.9 hPa 0 mm - 37 W/m² -
1788268332 21.11° C 84% 1015.9 hPa 0 mm - 36 W/m² -
1788268030 20.56° C 87% 1015.6 hPa 0 mm - 29 W/m² -
1788267731 20.56° C 87% 1015.6 hPa 0 mm - 29 W/m² -
1788267429 20° C 88% 1015.6 hPa 0 mm - 24 W/m² -
1788267130 20° C 88% 1015.6 hPa 0 mm - 24 W/m² -
1788266830 20° C 88% 1015.6 hPa 0 mm - 22 W/m² -
1788266533 19.44° C 88% 1015.6 hPa 0 mm - 19 W/m² -

* Rain latest hour (hover to see other rain measurements)
** Current wind speed in m/s (hover to see current wind gust speed)